Location: Newark
(45.2500°N, 7.5833°E)
Time: 19:47:41
(UTC+00:00)

A-11 Canister half - Pass Details

Date: 02 February 2020
Orbit: 1524 x 1684 km, 47.3° (Epoch: 19 February)

Event Time Altitude Azimuth Distance (km) Brightness Sun altitude
Rises 15:23:58 0° 239° (WSW) 4,667 13.8 10.3°
Reaches altitude 10° 15:27:00 10° 237° (WSW) 3,685 14.5 9.9°
Maximum altitude 15:36:14 75° 154° (SSE) 1,578 9.3 8.6°
Drops below altitude 10° 15:45:39 10° 72° (ENE) 3,752 10.5 7.2°
Sets 15:48:45 0° 71° (ENE) 4,756 10.9 6.7°
